STARLINK-33744, 63471

Orbit data source: Space-Track

STARLINK-33744, 63471 is a payload satellite owned by SpaceX/Seattle (US) in LEO that was launched on Sun, 06 Apr 2025 UTC via an FALCON 9 launch vehicle from the Air Force Eastern Test Range (AFETR). Payload-class satellites include a variety of spacecraft equipped with specific instruments for various scientific and technological missions. These include communications satellites like Starlink; space stations such as the ISS; scientific satellites like the Hubble; Earth observation satellites from companies like Planet Labs, Umbra, and HawkEye 360; GPS; miniature CubeSats for education and research; and military/defense satellites.

Loading next visibility...
Identifier
63471, 2025-070M
Orbit
LEO
Country
Flag of USUS
Related business
Manufacturer
SpaceX/Seattle
Mission
Operational Commercial Communications
Bus & Motor
STARLINK V2MO, Unknown motor
Mass
575 kg wet, ~530 kg dry
Launch date (UTC)
2025-04-06 (1 year ago)
Launch vehicle
FALCON 9
Launch site
Air Force Eastern Test Range (AFETR)
Object type
Payload
Rocket body
Debris
Shape & HBR
Box + 2 Pan, 17.7 m
Radar Cross Section
36.964 m², Large (>1 m²)

Expand to show TLE details & history
Last TLE update: 9 hours ago

TLE from 9 hours ago
0 STARLINK-33744
1 63471U 25070M   26170.03777380  .00020459  00000-0  75085-3 0  9994
2 63471  43.0029  47.6680 0001448 269.7217  90.3468 15.27582762 68473
Epoch: 2026-06-19T00:54Z
TLE epoch observation values (Epoch: 2026-06-19T00:54:23.656Z)
Latitude
-0.00006°
Longitude
126.79687°
Altitude
482.823 km
Speed
7.626 km/s
True Right ascension
03h 10m 40s
True Declination
0° 00' 00"
Sunlit
Object was in daylight at epoch
Visualization orbit readout
Latitude
Unknown
Longitude
Unknown
Altitude
Unknown
Speed
Unknown
Apparent Right ascension
Unknown
Apparent Declination
Unknown
Sunlit
N/A
Visualization observer readout
Local Sidereal Time
20:51:29
Azimuth
Unknown
Elevation
Unknown
Doppler factor
Unknown
Orbital elements
Apogee altitude
485.979 km
Perigee altitude
483.992 km
Semi-major axis
6,863.123 km
Eccentricity
0.00014
Inclination
43.0029°
RAAN
47.668°
Arg. of periapsis
269.7217°
True anomaly
90.36339°
Mean anomaly
90.3468°
Eccentric anomaly
90.3551°
Mean motion
3.81734 °/min
Orbital period
94.31 mins
BSTAR
0.00075085
Loading maneuver chart data...
Computing Atmospheric mass density...
Loading historical data...
Loading historical data...
Loading historical data...
Loading historical data...
Loading historical data...
Loading historical data...
Loading historical data...

Documentation

Showing up to 5 results
|